Regional Weather Roundup
Issued by NWS

Home | Current Version | Previous Version | Text Only | Print | Product List | Glossary Off
Versions: 1 2 3 4 5 6 7 8 9 10 11 12 13 14 15 16 17 18 19 20 21 22 23 24 25 26 27 28 29 30 31 32 33 34 35 36 37 38 39 40 41 42 43 44 45 46 47 48 49 50

000
ASUS43 KDMX 220607
RWRIA

WEATHER ROUNDUP FOR IOWA
NATIONAL WEATHER SERVICE DES MOINES IA
100 AM CDT FRI AUG 22 2014

NOTE: "FAIR" INDICATES FEW OR NO CLOUDS BELOW 12,000 FEET WITH NO
SIGNIFICANT WEATHER AND/OR OBSTRUCTIONS TO VISIBILITY.

* - THESE STATIONS ARE NOT NWS STATIONS...THUS NOT UNDER NWS
QUALITY CONTROL.  THEY ALSO DO NOT REPORT WEATHER SUCH
AS PRECIPITATION OR FOG.

IAZ001>003-012>014-020>022-031>034-043>046-220700-
   NORTHWEST IOWA

CITY           SKY/WX    TMP DP  RH WIND       PRES   REMARKS
CARROLL *      CLEAR     72  72 100 CALM      29.85F FOG
CHEROKEE *       N/A     74  74 100 CALM      29.87S
DENISON *      MOCLDY    75  75 100 CALM      29.86R FOG
LE MARS *      CLEAR     75  73  94 CALM      29.88S
ORANGE CITY *  CLEAR     77  70  78 N5        29.89S
SHELDON *      CLEAR     70  70 100 CALM      29.88S
SIOUX CITY       N/A     77  74  90 CALM      29.86F
6HR MIN TEMP:  77; 6HR MAX TEMP:  90;

SPENCER          N/A     71  68  90 NE6       29.88F
6HR MIN TEMP:  71; 6HR MAX TEMP:  85;

STORM LAKE *   CLEAR     73  73 100 SW3       29.89R
$$

IAZ055>058-069>071-079>083-090>094-220700-
   SOUTHWEST IOWA

CITY           SKY/WX    TMP DP  RH WIND       PRES   REMARKS
ATLANTIC *     LGT RAIN  77  77 100 SE9       29.86S
AUDUBON *      LGT RAIN  79  75  89 CALM      29.88S HX  82
CLARINDA *     PTCLDY    79  75  89 S7        29.86F HX  82
COUNCIL BLFS * LGT RAIN  73  73 100 E8G16     29.90R
CRESTON *      CLOUDY    79  77  94 S5        29.88S HX  83
HARLAN  *      CLOUDY    77  73  88 S7        29.90S
LAMONI           N/A     81  73  76 S13       29.89S HX  86
6HR MIN TEMP:  81; 6HR MAX TEMP:  86;

RED OAK *      CLOUDY    79  72  78 N12G20    29.87R HX  82
SHENANDOAH *   MOCLDY    81  77  89 S9        29.83F HX  88
$$

IAZ047>049-059>061-072>074-084-220700-
   CENTRAL IOWA

CITY           SKY/WX    TMP DP  RH WIND       PRES   REMARKS
AMES             N/A     73  73 100 CALM      29.85F FOG
6HR MIN TEMP:  73; 6HR MAX TEMP:  83;

ANKENY *       CLEAR     75  73  94 CALM      29.85F
CHARITON *     CLOUDY    79  75  89 S8        29.88F HX  82
DES MOINES       N/A     80  76  87 SE7       29.85F HX  86
6HR MIN TEMP:  80; 6HR MAX TEMP:  86;

GRINNELL*        N/A     77  73  88 S5        29.88F
KNOXVILLE *    PTCLDY    79  75  89 S6        29.85F HX  82
MARSHALLTOWN     N/A     73  72  96 E7        29.87F FOG
6HR MIN TEMP:  73; 6HR MAX TEMP:  83;

PELLA *          N/A     78  75  91 SE3       29.87F HX  81
PERRY *          N/A     73  73 100 E3        29.85F FOG
$$

IAZ004>006-015-016-023>025-035-036-220700-
   NORTH CENTRAL IOWA

CITY           SKY/WX    TMP DP  RH WIND       PRES   REMARKS
ALGONA *       CLEAR     73  73 100 NW3       29.88F
CLARION *      CLEAR     73  73 100 S5        29.88F
ESTHERVILLE      N/A     68  68 100 CALM      29.88F
6HR MIN TEMP:  68; 6HR MAX TEMP:  83; 6HR PCP: TRACE;

FORT DODGE *     N/A     75  72  88 S3        29.87F
MASON CITY       N/A     71  71 100 CALM      29.90S FOG
6HR MIN TEMP:  71; 6HR MAX TEMP:  83;

FOREST CITY *  PTCLDY    72  72 100 CALM      29.89S FOG
IOWA FALLS *     N/A     71  69  93 E6        29.89F
$$

IAZ007>011-017>019-026>030-037>042-050>054-066-220700-
   NORTHEAST IOWA

CITY           SKY/WX    TMP DP  RH WIND       PRES   REMARKS
CEDAR RAPIDS     N/A     73  73 100 E6        29.89S FOG
6HR MIN TEMP:  72; 6HR MAX TEMP:  80;

CHARLES CITY * CLEAR     72  72 100 S5        29.90R FOG
CLINTON *        N/A     73  72  94 NE3       29.92F
DECORAH *      CLEAR     72  72 100 S7        29.89F FOG
DUBUQUE          N/A     70  70 100 CALM      29.92F
6HR MIN TEMP:  70; 6HR MAX TEMP:  75;

MONTICELLO *   CLEAR     70  70 100 CALM      29.90F FOG
OELWEIN *      CLEAR     72  72 100 SE7       29.91S FOG
WATERLOO         N/A     73  72  96 S3        29.87F
6HR MIN TEMP:  72; 6HR MAX TEMP:  82;

$$

IAZ064-065-067-068-078-220700-
   EAST CENTRAL IOWA

CITY           SKY/WX    TMP DP  RH WIND       PRES   REMARKS
DAVENPORT        N/A     74  72  93 SE3       29.89F FOG
6HR MIN TEMP:  74; 6HR MAX TEMP:  77;

IOWA CITY      FOG       72  72 100 CALM      29.89F VSB 1/2
6HR MIN TEMP:  71; 6HR MAX TEMP:  80; 6HR PCP:  0.01;

MT. PLEASANT *   N/A     78  75  91 S6        29.88F HX  81
MUSCATINE *    MOCLDY    75  73  94 CALM      29.88F
QUAD CITIES      N/A     74  72  93 CALM      29.88F
6HR MIN TEMP:  74; 6HR MAX TEMP:  82;

$$

IAZ062-063-075>077-085>089-095>099-220700-
   SOUTHEAST IOWA

CITY           SKY/WX    TMP DP  RH WIND       PRES   REMARKS
BURLINGTON     TSTM      79  77  94 S15G24    29.88F HX  83
6HR MIN TEMP:  77; 6HR MAX TEMP:  86; 6HR PCP:  0.25;

FAIRFIELD *    PTCLDY    79  75  89 S5        29.87F HX  82
FORT MADISON * LGT RAIN  79  75  89 CALM      29.90F HX  82
KEOKUK *       CLEAR     81  75  83 S8        29.89S HX  86
OSKALOOSA *    LGT RAIN  78  75  92 S3        29.87F HX  80
CENTERVILLE *  CLEAR     81  75  83 S8        29.90F HX  86
OTTUMWA        MOCLDY    79  75  87 S7        29.87F HX  83
6HR MIN TEMP:  77; 6HR MAX TEMP:  83; 6HR PCP: TRACE;

WASHINGTON *     N/A     77  77 100 CALM      29.88F
$$

ABBREVIATIONS USED IN REMARKS
   TC - TEMPERATURES IN CELSIUS
  WCI - WIND CHILL INDEX
   HX - HEAT INDEX
  VSB - VISIBILITY
$$




USA.gov is the U.S. government's official web portal to all federal, state and local government web resources and services.